owner,sensor,date,latitude,longitude,vertical_datum,sea_water_practical_salinity,qcFlag 
LUMCON,ioos:station:LUMCON:102:1,2015-12-01T05:00:00Z,29.1870,-90.6093,2.01,26.22,1111122 
LUMCON,ioos:station:LUMCON:102:1,2015-12-01T05:15:00Z,29.1870,-90.6093,2.0,26.17,1111122 
LUMCON,ioos:station:LUMCON:102:1,2015-12-01T05:30:00Z,29.1870,-90.6093,2.0,26.19,1111122 
LUMCON,ioos:station:LUMCON:102:1,2015-12-01T05:45:00Z,29.1870,-90.6093,2.01,26.2,1111122 
LUMCON,ioos:station:LUMCON:102:1,2015-12-01T06:00:00Z,29.1870,-90.6093,2.0,26.25,1111122 
LUMCON,ioos:station:LUMCON:102:1,2015-12-01T06:15:00Z,29.1870,-90.6093,2.0,26.27,1111122 
LUMCON,ioos:station:LUMCON:102:1,2015-12-01T06:30:00Z,29.1870,-90.6093,1.99,26.26,1111122 
LUMCON,ioos:station:LUMCON:102:1,2015-12-01T06:45:00Z,29.1870,-90.6093,1.98,26.25,1111122 
LUMCON,ioos:station:LUMCON:102:1,2015-12-01T07:00:00Z,29.1870,-90.6093,1.98,26.22,1111122 
LUMCON,ioos:station:LUMCON:102:1,2015-12-01T07:15:00Z,29.1870,-90.6093,1.98,26.2,1111122 
LUMCON,ioos:station:LUMCON:102:1,2015-12-01T07:30:00Z,29.1870,-90.6093,1.96,26.19,1111122 
LUMCON,ioos:station:LUMCON:102:1,2015-12-01T07:45:00Z,29.1870,-90.6093,1.94,26.16,1111122 
LUMCON,ioos:station:LUMCON:102:1,2015-12-01T08:00:00Z,29.1870,-90.6093,1.93,26.13,1111122 
LUMCON,ioos:station:LUMCON:102:1,2015-12-01T08:15:00Z,29.1870,-90.6093,1.92,26.1,1111122 
LUMCON,ioos:station:LUMCON:102:1,2015-12-01T08:30:00Z,29.1870,-90.6093,1.92,26.08,1111122 
LUMCON,ioos:station:LUMCON:102:1,2015-12-01T08:45:00Z,29.1870,-90.6093,1.92,26.09,1111122 
LUMCON,ioos:station:LUMCON:102:1,2015-12-01T09:00:00Z,29.1870,-90.6093,1.91,26.06,1111122 
LUMCON,ioos:station:LUMCON:102:1,2015-12-01T09:15:00Z,29.1870,-90.6093,1.9,25.97,1111122 
LUMCON,ioos:station:LUMCON:102:1,2015-12-01T09:30:00Z,29.1870,-90.6093,1.89,25.89,1111122 
LUMCON,ioos:station:LUMCON:102:1,2015-12-01T09:45:00Z,29.1870,-90.6093,1.88,25.78,1111122 
LUMCON,ioos:station:LUMCON:102:1,2015-12-01T10:00:00Z,29.1870,-90.6093,1.87,25.74,1111122 
LUMCON,ioos:station:LUMCON:102:1,2015-12-01T10:15:00Z,29.1870,-90.6093,1.85,25.73,1111122 
LUMCON,ioos:station:LUMCON:102:1,2015-12-01T10:30:00Z,29.1870,-90.6093,1.86,25.7,1111122 
LUMCON,ioos:station:LUMCON:102:1,2015-12-01T10:45:00Z,29.1870,-90.6093,1.85,25.65,1111122 
LUMCON,ioos:station:LUMCON:102:1,2015-12-01T11:00:00Z,29.1870,-90.6093,1.85,25.51,1111122 
LUMCON,ioos:station:LUMCON:102:1,2015-12-01T11:15:00Z,29.1870,-90.6093,1.82,25.56,1111122 
LUMCON,ioos:station:LUMCON:102:1,2015-12-01T11:30:00Z,29.1870,-90.6093,1.82,25.53,1111122 
LUMCON,ioos:station:LUMCON:102:1,2015-12-01T11:45:00Z,29.1870,-90.6093,1.8,25.46,1111122 
LUMCON,ioos:station:LUMCON:102:1,2015-12-01T12:00:00Z,29.1870,-90.6093,1.8,25.35,1111122 
LUMCON,ioos:station:LUMCON:102:1,2015-12-01T12:15:00Z,29.1870,-90.6093,1.78,25.29,1111122 
LUMCON,ioos:station:LUMCON:102:1,2015-12-01T12:30:00Z,29.1870,-90.6093,1.77,25.18,1111122 
LUMCON,ioos:station:LUMCON:102:1,2015-12-01T12:45:00Z,29.1870,-90.6093,1.76,25.06,1111122 
LUMCON,ioos:station:LUMCON:102:1,2015-12-01T13:00:00Z,29.1870,-90.6093,1.74,24.89,1111122 
LUMCON,ioos:station:LUMCON:102:1,2015-12-01T13:15:00Z,29.1870,-90.6093,1.73,24.76,1111122 
LUMCON,ioos:station:LUMCON:102:1,2015-12-01T13:30:00Z,29.1870,-90.6093,1.73,24.64,1111122 
LUMCON,ioos:station:LUMCON:102:1,2015-12-01T13:45:00Z,29.1870,-90.6093,1.72,24.49,1111122 
LUMCON,ioos:station:LUMCON:102:1,2015-12-01T14:00:00Z,29.1870,-90.6093,1.72,24.49,1111122 
LUMCON,ioos:station:LUMCON:102:1,2015-12-01T14:15:00Z,29.1870,-90.6093,1.72,24.43,1111122 
LUMCON,ioos:station:LUMCON:102:1,2015-12-01T14:30:00Z,29.1870,-90.6093,1.71,24.31,1111122 
LUMCON,ioos:station:LUMCON:102:1,2015-12-01T14:45:00Z,29.1870,-90.6093,1.71,24.28,1111122 
LUMCON,ioos:station:LUMCON:102:1,2015-12-01T15:00:00Z,29.1870,-90.6093,1.71,24.23,1111122 
LUMCON,ioos:station:LUMCON:102:1,2015-12-01T15:15:00Z,29.1870,-90.6093,1.7,24.17,1111122 
LUMCON,ioos:station:LUMCON:102:1,2015-12-01T15:30:00Z,29.1870,-90.6093,1.7,24.06,1111122 
LUMCON,ioos:station:LUMCON:102:1,2015-12-01T15:45:00Z,29.1870,-90.6093,1.68,23.97,1111122 
LUMCON,ioos:station:LUMCON:102:1,2015-12-01T16:00:00Z,29.1870,-90.6093,1.68,23.85,1111122 
LUMCON,ioos:station:LUMCON:102:1,2015-12-01T16:15:00Z,29.1870,-90.6093,1.68,23.79,1111122 
LUMCON,ioos:station:LUMCON:102:1,2015-12-01T16:30:00Z,29.1870,-90.6093,1.69,23.69,1111122 
LUMCON,ioos:station:LUMCON:102:1,2015-12-01T16:45:00Z,29.1870,-90.6093,1.68,23.62,1111122 
LUMCON,ioos:station:LUMCON:102:1,2015-12-01T17:00:00Z,29.1870,-90.6093,1.67,23.47,1111122 
LUMCON,ioos:station:LUMCON:102:1,2015-12-01T17:15:00Z,29.1870,-90.6093,1.68,23.34,1111122 
LUMCON,ioos:station:LUMCON:102:1,2015-12-01T17:30:00Z,29.1870,-90.6093,1.67,23.34,1111122 
LUMCON,ioos:station:LUMCON:102:1,2015-12-01T17:45:00Z,29.1870,-90.6093,1.67,23.2,1111122 
LUMCON,ioos:station:LUMCON:102:1,2015-12-01T18:00:00Z,29.1870,-90.6093,1.68,23.26,1111122 
LUMCON,ioos:station:LUMCON:102:1,2015-12-01T18:15:00Z,29.1870,-90.6093,1.66,23.33,1111122 
LUMCON,ioos:station:LUMCON:102:1,2015-12-01T18:30:00Z,29.1870,-90.6093,1.68,23.34,1111122 
LUMCON,ioos:station:LUMCON:102:1,2015-12-01T18:45:00Z,29.1870,-90.6093,1.68,23.37,1111122 
LUMCON,ioos:station:LUMCON:102:1,2015-12-01T19:00:00Z,29.1870,-90.6093,1.71,23.44,1111122 
LUMCON,ioos:station:LUMCON:102:1,2015-12-01T19:15:00Z,29.1870,-90.6093,1.69,23.47,1111122 
LUMCON,ioos:station:LUMCON:102:1,2015-12-01T19:30:00Z,29.1870,-90.6093,1.71,23.51,1111122 
LUMCON,ioos:station:LUMCON:102:1,2015-12-01T19:45:00Z,29.1870,-90.6093,1.72,23.51,1111122 
LUMCON,ioos:station:LUMCON:102:1,2015-12-01T20:00:00Z,29.1870,-90.6093,1.73,23.77,1111122 
LUMCON,ioos:station:LUMCON:102:1,2015-12-01T20:15:00Z,29.1870,-90.6093,1.74,24.18,1111122 
LUMCON,ioos:station:LUMCON:102:1,2015-12-01T20:30:00Z,29.1870,-90.6093,1.75,24.33,1111122 
LUMCON,ioos:station:LUMCON:102:1,2015-12-01T20:45:00Z,29.1870,-90.6093,1.75,24.47,1111122 
LUMCON,ioos:station:LUMCON:102:1,2015-12-01T21:00:00Z,29.1870,-90.6093,1.76,24.6,1111122 
LUMCON,ioos:station:LUMCON:102:1,2015-12-01T21:15:00Z,29.1870,-90.6093,1.78,24.74,1111122 
LUMCON,ioos:station:LUMCON:102:1,2015-12-01T21:30:00Z,29.1870,-90.6093,1.79,24.82,1111122 
LUMCON,ioos:station:LUMCON:102:1,2015-12-01T21:45:00Z,29.1870,-90.6093,1.8,24.88,1111122 
LUMCON,ioos:station:LUMCON:102:1,2015-12-01T22:00:00Z,29.1870,-90.6093,1.8,25.04,1111122 
LUMCON,ioos:station:LUMCON:102:1,2015-12-01T22:15:00Z,29.1870,-90.6093,1.82,25.09,1111122 
LUMCON,ioos:station:LUMCON:102:1,2015-12-01T22:30:00Z,29.1870,-90.6093,1.85,25.02,1111122 
LUMCON,ioos:station:LUMCON:102:1,2015-12-01T22:45:00Z,29.1870,-90.6093,1.84,24.99,1111122 
LUMCON,ioos:station:LUMCON:102:1,2015-12-01T23:00:00Z,29.1870,-90.6093,1.86,25.06,1111122 
LUMCON,ioos:station:LUMCON:102:1,2015-12-01T23:15:00Z,29.1870,-90.6093,1.86,25.04,1111122 
LUMCON,ioos:station:LUMCON:102:1,2015-12-01T23:30:00Z,29.1870,-90.6093,1.87,25.12,1111122 
LUMCON,ioos:station:LUMCON:102:1,2015-12-01T23:45:00Z,29.1870,-90.6093,1.87,24.95,1111122 
LUMCON,ioos:station:LUMCON:102:1,2015-12-02T05:00:00Z,29.1870,-90.6093,1.94,26.15,1111122 
LUMCON,ioos:station:LUMCON:102:1,2015-12-02T05:15:00Z,29.1870,-90.6093,1.94,26.16,1111122 
LUMCON,ioos:station:LUMCON:102:1,2015-12-02T05:30:00Z,29.1870,-90.6093,1.95,26.16,1111122 
LUMCON,ioos:station:LUMCON:102:1,2015-12-02T05:45:00Z,29.1870,-90.6093,1.93,26.17,1111122 
LUMCON,ioos:station:LUMCON:102:1,2015-12-02T06:00:00Z,29.1870,-90.6093,1.94,26.17,1111122 
LUMCON,ioos:station:LUMCON:102:1,2015-12-02T06:15:00Z,29.1870,-90.6093,1.92,26.2,1111122 
LUMCON,ioos:station:LUMCON:102:1,2015-12-02T06:30:00Z,29.1870,-90.6093,1.91,26.19,1111122 
LUMCON,ioos:station:LUMCON:102:1,2015-12-02T06:45:00Z,29.1870,-90.6093,1.92,26.2,1111122 
LUMCON,ioos:station:LUMCON:102:1,2015-12-02T07:00:00Z,29.1870,-90.6093,1.92,26.2,1111122 
LUMCON,ioos:station:LUMCON:102:1,2015-12-02T07:15:00Z,29.1870,-90.6093,1.92,26.23,1111122 
LUMCON,ioos:station:LUMCON:102:1,2015-12-02T07:30:00Z,29.1870,-90.6093,1.91,26.24,1111122 
LUMCON,ioos:station:LUMCON:102:1,2015-12-02T07:45:00Z,29.1870,-90.6093,1.93,26.26,1111122 
LUMCON,ioos:station:LUMCON:102:1,2015-12-02T08:00:00Z,29.1870,-90.6093,1.91,26.27,1111122 
LUMCON,ioos:station:LUMCON:102:1,2015-12-02T08:15:00Z,29.1870,-90.6093,1.92,26.28,1111122 
LUMCON,ioos:station:LUMCON:102:1,2015-12-02T08:30:00Z,29.1870,-90.6093,1.9,26.3,1111122 
LUMCON,ioos:station:LUMCON:102:1,2015-12-02T08:45:00Z,29.1870,-90.6093,1.89,26.3,1111122 
LUMCON,ioos:station:LUMCON:102:1,2015-12-02T09:00:00Z,29.1870,-90.6093,1.88,26.26,1111122 
LUMCON,ioos:station:LUMCON:102:1,2015-12-02T09:15:00Z,29.1870,-90.6093,1.87,26.13,1111122 
LUMCON,ioos:station:LUMCON:102:1,2015-12-02T09:30:00Z,29.1870,-90.6093,1.86,25.45,1111122 
LUMCON,ioos:station:LUMCON:102:1,2015-12-02T09:45:00Z,29.1870,-90.6093,1.85,25.53,1111122 
LUMCON,ioos:station:LUMCON:102:1,2015-12-02T10:00:00Z,29.1870,-90.6093,1.83,25.68,1111122 
LUMCON,ioos:station:LUMCON:102:1,2015-12-02T10:15:00Z,29.1870,-90.6093,1.84,25.51,1111122 
LUMCON,ioos:station:LUMCON:102:1,2015-12-02T10:30:00Z,29.1870,-90.6093,1.83,25.2,1111122 
LUMCON,ioos:station:LUMCON:102:1,2015-12-02T10:45:00Z,29.1870,-90.6093,1.83,24.98,1111122 
LUMCON,ioos:station:LUMCON:102:1,2015-12-02T11:00:00Z,29.1870,-90.6093,1.8,24.86,1111122 
LUMCON,ioos:station:LUMCON:102:1,2015-12-02T11:15:00Z,29.1870,-90.6093,1.8,24.78,1111122 
LUMCON,ioos:station:LUMCON:102:1,2015-12-02T11:30:00Z,29.1870,-90.6093,1.79,24.47,1111122 
LUMCON,ioos:station:LUMCON:102:1,2015-12-02T11:45:00Z,29.1870,-90.6093,1.77,24.21,1111122 
LUMCON,ioos:station:LUMCON:102:1,2015-12-02T12:00:00Z,29.1870,-90.6093,1.77,23.93,1111122 
LUMCON,ioos:station:LUMCON:102:1,2015-12-02T12:15:00Z,29.1870,-90.6093,1.76,23.94,1111122 
LUMCON,ioos:station:LUMCON:102:1,2015-12-02T12:30:00Z,29.1870,-90.6093,1.75,23.85,1111122 
LUMCON,ioos:station:LUMCON:102:1,2015-12-02T12:45:00Z,29.1870,-90.6093,1.76,23.69,1111122 
LUMCON,ioos:station:LUMCON:102:1,2015-12-02T13:00:00Z,29.1870,-90.6093,1.73,23.62,1111122 
LUMCON,ioos:station:LUMCON:102:1,2015-12-02T13:15:00Z,29.1870,-90.6093,1.72,23.57,1111122 
LUMCON,ioos:station:LUMCON:102:1,2015-12-02T13:30:00Z,29.1870,-90.6093,1.7,23.4,1111122 
LUMCON,ioos:station:LUMCON:102:1,2015-12-02T13:45:00Z,29.1870,-90.6093,1.69,23.37,1111122 
LUMCON,ioos:station:LUMCON:102:1,2015-12-02T14:00:00Z,29.1870,-90.6093,1.68,23.24,1111122 
LUMCON,ioos:station:LUMCON:102:1,2015-12-02T14:15:00Z,29.1870,-90.6093,1.69,23.12,1111122 
LUMCON,ioos:station:LUMCON:102:1,2015-12-02T14:30:00Z,29.1870,-90.6093,1.67,22.99,1111122 
LUMCON,ioos:station:LUMCON:102:1,2015-12-02T14:45:00Z,29.1870,-90.6093,1.67,22.9,1111122 
LUMCON,ioos:station:LUMCON:102:1,2015-12-02T15:00:00Z,29.1870,-90.6093,1.66,22.81,1111122 
LUMCON,ioos:station:LUMCON:102:1,2015-12-02T15:15:00Z,29.1870,-90.6093,1.65,22.79,1111122 
LUMCON,ioos:station:LUMCON:102:1,2015-12-02T15:30:00Z,29.1870,-90.6093,1.64,22.84,1111122 
LUMCON,ioos:station:LUMCON:102:1,2015-12-02T15:45:00Z,29.1870,-90.6093,1.63,22.76,1111122 
LUMCON,ioos:station:LUMCON:102:1,2015-12-02T16:00:00Z,29.1870,-90.6093,1.61,22.67,1111122 
LUMCON,ioos:station:LUMCON:102:1,2015-12-02T16:15:00Z,29.1870,-90.6093,1.62,22.64,1111122 
LUMCON,ioos:station:LUMCON:102:1,2015-12-02T16:30:00Z,29.1870,-90.6093,1.65,22.61,1111122 
LUMCON,ioos:station:LUMCON:102:1,2015-12-02T16:45:00Z,29.1870,-90.6093,1.65,22.61,1111122 
LUMCON,ioos:station:LUMCON:102:1,2015-12-02T17:00:00Z,29.1870,-90.6093,1.64,22.63,1111122 
LUMCON,ioos:station:LUMCON:102:1,2015-12-02T17:15:00Z,29.1870,-90.6093,1.69,22.68,1111122 
LUMCON,ioos:station:LUMCON:102:1,2015-12-02T17:30:00Z,29.1870,-90.6093,1.69,22.69,1111122 
LUMCON,ioos:station:LUMCON:102:1,2015-12-02T17:45:00Z,29.1870,-90.6093,1.69,22.81,1111122 
LUMCON,ioos:station:LUMCON:102:1,2015-12-02T18:00:00Z,29.1870,-90.6093,1.69,23.05,1111122 
LUMCON,ioos:station:LUMCON:102:1,2015-12-02T18:15:00Z,29.1870,-90.6093,1.71,23.08,1111122 
LUMCON,ioos:station:LUMCON:102:1,2015-12-02T18:30:00Z,29.1870,-90.6093,1.67,23.06,1111122 
LUMCON,ioos:station:LUMCON:102:1,2015-12-02T18:45:00Z,29.1870,-90.6093,1.68,22.97,1111122 
LUMCON,ioos:station:LUMCON:102:1,2015-12-02T19:00:00Z,29.1870,-90.6093,1.68,23.06,1111122 
LUMCON,ioos:station:LUMCON:102:1,2015-12-02T19:15:00Z,29.1870,-90.6093,1.68,23.05,1111122 
LUMCON,ioos:station:LUMCON:102:1,2015-12-02T19:30:00Z,29.1870,-90.6093,1.7,23.03,1111122 
LUMCON,ioos:station:LUMCON:102:1,2015-12-02T19:45:00Z,29.1870,-90.6093,1.71,23.06,1111122 
LUMCON,ioos:station:LUMCON:102:1,2015-12-02T20:00:00Z,29.1870,-90.6093,1.74,23.13,1111122 
LUMCON,ioos:station:LUMCON:102:1,2015-12-02T20:15:00Z,29.1870,-90.6093,1.76,23.14,1111122 
LUMCON,ioos:station:LUMCON:102:1,2015-12-02T20:30:00Z,29.1870,-90.6093,1.75,23.22,1111122 
LUMCON,ioos:station:LUMCON:102:1,2015-12-02T20:45:00Z,29.1870,-90.6093,1.77,23.3,1111122 
LUMCON,ioos:station:LUMCON:102:1,2015-12-02T21:00:00Z,29.1870,-90.6093,1.77,23.45,1111122 
LUMCON,ioos:station:LUMCON:102:1,2015-12-02T21:15:00Z,29.1870,-90.6093,1.77,23.51,1111122 
LUMCON,ioos:station:LUMCON:102:1,2015-12-02T21:30:00Z,29.1870,-90.6093,1.76,23.38,1111122 
LUMCON,ioos:station:LUMCON:102:1,2015-12-02T21:45:00Z,29.1870,-90.6093,1.78,23.28,1111122 
LUMCON,ioos:station:LUMCON:102:1,2015-12-02T22:00:00Z,29.1870,-90.6093,1.77,23.09,1111122 
LUMCON,ioos:station:LUMCON:102:1,2015-12-02T22:15:00Z,29.1870,-90.6093,1.77,23.05,1111122 
LUMCON,ioos:station:LUMCON:102:1,2015-12-02T22:30:00Z,29.1870,-90.6093,1.78,23.24,1111122 
LUMCON,ioos:station:LUMCON:102:1,2015-12-02T22:45:00Z,29.1870,-90.6093,1.75,23.15,1111122 
LUMCON,ioos:station:LUMCON:102:1,2015-12-02T23:00:00Z,29.1870,-90.6093,1.78,23.27,1111122 
LUMCON,ioos:station:LUMCON:102:1,2015-12-02T23:15:00Z,29.1870,-90.6093,1.77,23.35,1111122 
LUMCON,ioos:station:LUMCON:102:1,2015-12-02T23:30:00Z,29.1870,-90.6093,1.8,23.29,1111122 
LUMCON,ioos:station:LUMCON:102:1,2015-12-02T23:45:00Z,29.1870,-90.6093,1.82,23.21,1111122 
LUMCON,ioos:station:LUMCON:102:1,2015-12-03T05:00:00Z,29.1870,-90.6093,1.84,23.73,1111122 
LUMCON,ioos:station:LUMCON:102:1,2015-12-03T05:15:00Z,29.1870,-90.6093,1.83,23.75,1111122 
LUMCON,ioos:station:LUMCON:102:1,2015-12-03T05:30:00Z,29.1870,-90.6093,1.82,23.74,1111122 
LUMCON,ioos:station:LUMCON:102:1,2015-12-03T05:45:00Z,29.1870,-90.6093,1.83,23.8,1111122 
LUMCON,ioos:station:LUMCON:102:1,2015-12-03T06:00:00Z,29.1870,-90.6093,1.81,23.79,1111122 
LUMCON,ioos:station:LUMCON:102:1,2015-12-03T06:15:00Z,29.1870,-90.6093,1.82,23.73,1111122 
LUMCON,ioos:station:LUMCON:102:1,2015-12-03T06:30:00Z,29.1870,-90.6093,1.81,23.63,1111122 
LUMCON,ioos:station:LUMCON:102:1,2015-12-03T06:45:00Z,29.1870,-90.6093,1.81,23.58,1111122 
LUMCON,ioos:station:LUMCON:102:1,2015-12-03T07:00:00Z,29.1870,-90.6093,1.79,23.64,1111122 
LUMCON,ioos:station:LUMCON:102:1,2015-12-03T07:15:00Z,29.1870,-90.6093,1.79,23.71,1111122 
LUMCON,ioos:station:LUMCON:102:1,2015-12-03T07:30:00Z,29.1870,-90.6093,1.79,23.7,1111122 
LUMCON,ioos:station:LUMCON:102:1,2015-12-03T07:45:00Z,29.1870,-90.6093,1.78,23.67,1111122 
LUMCON,ioos:station:LUMCON:102:1,2015-12-03T08:00:00Z,29.1870,-90.6093,1.79,23.66,1111122 
LUMCON,ioos:station:LUMCON:102:1,2015-12-03T08:15:00Z,29.1870,-90.6093,1.8,23.65,1111122 
LUMCON,ioos:station:LUMCON:102:1,2015-12-03T08:30:00Z,29.1870,-90.6093,1.78,23.65,1111122 
LUMCON,ioos:station:LUMCON:102:1,2015-12-03T08:45:00Z,29.1870,-90.6093,1.8,23.62,1111122 
LUMCON,ioos:station:LUMCON:102:1,2015-12-03T09:00:00Z,29.1870,-90.6093,1.8,23.62,1111122 
LUMCON,ioos:station:LUMCON:102:1,2015-12-03T09:15:00Z,29.1870,-90.6093,1.78,23.6,1111122 
LUMCON,ioos:station:LUMCON:102:1,2015-12-03T09:30:00Z,29.1870,-90.6093,1.78,23.58,1111122 
LUMCON,ioos:station:LUMCON:102:1,2015-12-03T09:45:00Z,29.1870,-90.6093,1.79,23.6,1111122 
LUMCON,ioos:station:LUMCON:102:1,2015-12-03T10:00:00Z,29.1870,-90.6093,1.78,23.61,1111122 
LUMCON,ioos:station:LUMCON:102:1,2015-12-03T10:15:00Z,29.1870,-90.6093,1.78,23.65,1111122 
LUMCON,ioos:station:LUMCON:102:1,2015-12-03T10:30:00Z,29.1870,-90.6093,1.77,23.66,1111122 
LUMCON,ioos:station:LUMCON:102:1,2015-12-03T10:45:00Z,29.1870,-90.6093,1.78,23.66,1111122 
LUMCON,ioos:station:LUMCON:102:1,2015-12-03T11:00:00Z,29.1870,-90.6093,1.78,23.66,1111122 
LUMCON,ioos:station:LUMCON:102:1,2015-12-03T11:15:00Z,29.1870,-90.6093,1.79,23.67,1111122 
LUMCON,ioos:station:LUMCON:102:1,2015-12-03T11:30:00Z,29.1870,-90.6093,1.77,23.67,1111122 
LUMCON,ioos:station:LUMCON:102:1,2015-12-03T11:45:00Z,29.1870,-90.6093,1.78,23.73,1111122 
LUMCON,ioos:station:LUMCON:102:1,2015-12-03T12:00:00Z,29.1870,-90.6093,1.79,23.85,1111122 
LUMCON,ioos:station:LUMCON:102:1,2015-12-03T12:15:00Z,29.1870,-90.6093,1.77,23.96,1111122 
LUMCON,ioos:station:LUMCON:102:1,2015-12-03T12:30:00Z,29.1870,-90.6093,1.76,23.95,1111122 
LUMCON,ioos:station:LUMCON:102:1,2015-12-03T12:45:00Z,29.1870,-90.6093,1.78,23.83,1111122 
LUMCON,ioos:station:LUMCON:102:1,2015-12-03T13:00:00Z,29.1870,-90.6093,1.77,23.65,1111122 
LUMCON,ioos:station:LUMCON:102:1,2015-12-03T13:15:00Z,29.1870,-90.6093,1.77,23.5,1111122 
LUMCON,ioos:station:LUMCON:102:1,2015-12-03T13:30:00Z,29.1870,-90.6093,1.79,23.45,1111122 
LUMCON,ioos:station:LUMCON:102:1,2015-12-03T13:45:00Z,29.1870,-90.6093,1.78,23.46,1111122 
LUMCON,ioos:station:LUMCON:102:1,2015-12-03T14:00:00Z,29.1870,-90.6093,1.77,23.4,1111122 
LUMCON,ioos:station:LUMCON:102:1,2015-12-03T14:15:00Z,29.1870,-90.6093,1.78,23.37,1111122 
LUMCON,ioos:station:LUMCON:102:1,2015-12-03T14:30:00Z,29.1870,-90.6093,1.77,23.34,1111122 
LUMCON,ioos:station:LUMCON:102:1,2015-12-03T14:45:00Z,29.1870,-90.6093,1.79,23.28,1111122 
LUMCON,ioos:station:LUMCON:102:1,2015-12-03T15:00:00Z,29.1870,-90.6093,1.78,23.21,1111122 
LUMCON,ioos:station:LUMCON:102:1,2015-12-03T15:15:00Z,29.1870,-90.6093,1.78,23.14,1111122 
LUMCON,ioos:station:LUMCON:102:1,2015-12-03T15:30:00Z,29.1870,-90.6093,1.76,23.09,1111122 
LUMCON,ioos:station:LUMCON:102:1,2015-12-03T15:45:00Z,29.1870,-90.6093,1.77,23.01,1111122 
LUMCON,ioos:station:LUMCON:102:1,2015-12-03T16:00:00Z,29.1870,-90.6093,1.79,22.88,1111122 
LUMCON,ioos:station:LUMCON:102:1,2015-12-03T16:15:00Z,29.1870,-90.6093,1.79,22.82,1111122 
LUMCON,ioos:station:LUMCON:102:1,2015-12-03T16:30:00Z,29.1870,-90.6093,1.78,22.75,1111122 
LUMCON,ioos:station:LUMCON:102:1,2015-12-03T16:45:00Z,29.1870,-90.6093,1.75,22.68,1111122 
LUMCON,ioos:station:LUMCON:102:1,2015-12-03T17:00:00Z,29.1870,-90.6093,1.77,22.59,1111122 
LUMCON,ioos:station:LUMCON:102:1,2015-12-03T17:15:00Z,29.1870,-90.6093,1.76,22.5,1111122 
LUMCON,ioos:station:LUMCON:102:1,2015-12-03T17:30:00Z,29.1870,-90.6093,1.77,22.44,1111122 
LUMCON,ioos:station:LUMCON:102:1,2015-12-03T17:45:00Z,29.1870,-90.6093,1.77,22.35,1111122 
LUMCON,ioos:station:LUMCON:102:1,2015-12-03T18:00:00Z,29.1870,-90.6093,1.76,22.27,1111122 
LUMCON,ioos:station:LUMCON:102:1,2015-12-03T18:15:00Z,29.1870,-90.6093,1.77,22.2,1111122 
LUMCON,ioos:station:LUMCON:102:1,2015-12-03T18:30:00Z,29.1870,-90.6093,1.77,22.2,1111122 
LUMCON,ioos:station:LUMCON:102:1,2015-12-03T18:45:00Z,29.1870,-90.6093,1.77,22.18,1111122 
LUMCON,ioos:station:LUMCON:102:1,2015-12-03T19:00:00Z,29.1870,-90.6093,1.8,22.19,1111122 
LUMCON,ioos:station:LUMCON:102:1,2015-12-03T19:15:00Z,29.1870,-90.6093,1.79,22.14,1111122 
LUMCON,ioos:station:LUMCON:102:1,2015-12-03T19:30:00Z,29.1870,-90.6093,1.79,22.15,1111122 
LUMCON,ioos:station:LUMCON:102:1,2015-12-03T19:45:00Z,29.1870,-90.6093,1.8,22.16,1111122 
LUMCON,ioos:station:LUMCON:102:1,2015-12-03T20:00:00Z,29.1870,-90.6093,1.81,22.15,1111122 
LUMCON,ioos:station:LUMCON:102:1,2015-12-03T20:15:00Z,29.1870,-90.6093,1.81,22.18,1111122 
LUMCON,ioos:station:LUMCON:102:1,2015-12-03T20:30:00Z,29.1870,-90.6093,1.81,22.22,1111122 
LUMCON,ioos:station:LUMCON:102:1,2015-12-03T20:45:00Z,29.1870,-90.6093,1.82,22.29,1111122 
LUMCON,ioos:station:LUMCON:102:1,2015-12-03T21:00:00Z,29.1870,-90.6093,1.83,22.35,1111122 
LUMCON,ioos:station:LUMCON:102:1,2015-12-03T21:15:00Z,29.1870,-90.6093,1.83,22.52,1111122 
LUMCON,ioos:station:LUMCON:102:1,2015-12-03T21:30:00Z,29.1870,-90.6093,1.83,22.72,1111122 
LUMCON,ioos:station:LUMCON:102:1,2015-12-03T21:45:00Z,29.1870,-90.6093,1.84,22.85,1111122 
LUMCON,ioos:station:LUMCON:102:1,2015-12-03T22:00:00Z,29.1870,-90.6093,1.85,22.93,1111122 
LUMCON,ioos:station:LUMCON:102:1,2015-12-03T22:15:00Z,29.1870,-90.6093,1.87,23.31,1111122 
LUMCON,ioos:station:LUMCON:102:1,2015-12-03T22:30:00Z,29.1870,-90.6093,1.85,23.34,1111122 
LUMCON,ioos:station:LUMCON:102:1,2015-12-03T22:45:00Z,29.1870,-90.6093,1.85,23.41,1111122 
LUMCON,ioos:station:LUMCON:102:1,2015-12-03T23:00:00Z,29.1870,-90.6093,1.86,23.39,1111122 
LUMCON,ioos:station:LUMCON:102:1,2015-12-03T23:15:00Z,29.1870,-90.6093,1.86,23.4,1111122 
LUMCON,ioos:station:LUMCON:102:1,2015-12-03T23:30:00Z,29.1870,-90.6093,1.87,23.56,1111122 
LUMCON,ioos:station:LUMCON:102:1,2015-12-03T23:45:00Z,29.1870,-90.6093,1.87,23.67,1111122 
LUMCON,ioos:station:LUMCON:102:1,2015-12-04T05:00:00Z,29.1870,-90.6093,1.86,24.45,1111122 
LUMCON,ioos:station:LUMCON:102:1,2015-12-04T05:15:00Z,29.1870,-90.6093,1.84,24.29,1111122 
LUMCON,ioos:station:LUMCON:102:1,2015-12-04T05:30:00Z,29.1870,-90.6093,1.85,24.16,1111122 
LUMCON,ioos:station:LUMCON:102:1,2015-12-04T05:45:00Z,29.1870,-90.6093,1.84,23.99,1111122 
LUMCON,ioos:station:LUMCON:102:1,2015-12-04T06:00:00Z,29.1870,-90.6093,1.83,23.79,1111122 
LUMCON,ioos:station:LUMCON:102:1,2015-12-04T06:15:00Z,29.1870,-90.6093,1.83,23.55,1111122 
LUMCON,ioos:station:LUMCON:102:1,2015-12-04T06:30:00Z,29.1870,-90.6093,1.82,23.3,1111122 
LUMCON,ioos:station:LUMCON:102:1,2015-12-04T06:45:00Z,29.1870,-90.6093,1.82,23.03,1111122 
LUMCON,ioos:station:LUMCON:102:1,2015-12-04T07:00:00Z,29.1870,-90.6093,1.82,22.8,1111122 
LUMCON,ioos:station:LUMCON:102:1,2015-12-04T07:15:00Z,29.1870,-90.6093,1.82,22.66,1111122 
LUMCON,ioos:station:LUMCON:102:1,2015-12-04T07:30:00Z,29.1870,-90.6093,1.82,22.54,1111122 
LUMCON,ioos:station:LUMCON:102:1,2015-12-04T07:45:00Z,29.1870,-90.6093,1.82,22.46,1111122 
LUMCON,ioos:station:LUMCON:102:1,2015-12-04T08:00:00Z,29.1870,-90.6093,1.83,22.41,1111122 
LUMCON,ioos:station:LUMCON:102:1,2015-12-04T08:15:00Z,29.1870,-90.6093,1.83,22.35,1111122 
LUMCON,ioos:station:LUMCON:102:1,2015-12-04T08:30:00Z,29.1870,-90.6093,1.82,22.3,1111122 
LUMCON,ioos:station:LUMCON:102:1,2015-12-04T08:45:00Z,29.1870,-90.6093,1.82,22.3,1111122 
LUMCON,ioos:station:LUMCON:102:1,2015-12-04T09:00:00Z,29.1870,-90.6093,1.82,22.34,1111122 
LUMCON,ioos:station:LUMCON:102:1,2015-12-04T09:15:00Z,29.1870,-90.6093,1.82,22.41,1111122 
LUMCON,ioos:station:LUMCON:102:1,2015-12-04T09:30:00Z,29.1870,-90.6093,1.81,22.51,1111122 
LUMCON,ioos:station:LUMCON:102:1,2015-12-04T09:45:00Z,29.1870,-90.6093,1.81,22.55,1111122 
LUMCON,ioos:station:LUMCON:102:1,2015-12-04T10:00:00Z,29.1870,-90.6093,1.81,22.66,1111122 
LUMCON,ioos:station:LUMCON:102:1,2015-12-04T10:15:00Z,29.1870,-90.6093,1.8,22.72,1111122 
LUMCON,ioos:station:LUMCON:102:1,2015-12-04T10:30:00Z,29.1870,-90.6093,1.8,22.84,1111122 
LUMCON,ioos:station:LUMCON:102:1,2015-12-04T10:45:00Z,29.1870,-90.6093,1.79,23.12,1111122 
LUMCON,ioos:station:LUMCON:102:1,2015-12-04T11:00:00Z,29.1870,-90.6093,1.79,23.59,1111122 
LUMCON,ioos:station:LUMCON:102:1,2015-12-04T11:15:00Z,29.1870,-90.6093,1.79,23.59,1111122 
LUMCON,ioos:station:LUMCON:102:1,2015-12-04T11:30:00Z,29.1870,-90.6093,1.79,23.45,1111122 
LUMCON,ioos:station:LUMCON:102:1,2015-12-04T11:45:00Z,29.1870,-90.6093,1.79,23.27,1111122 
LUMCON,ioos:station:LUMCON:102:1,2015-12-04T12:00:00Z,29.1870,-90.6093,1.79,23.13,1111122 
LUMCON,ioos:station:LUMCON:102:1,2015-12-04T12:15:00Z,29.1870,-90.6093,1.79,23.0,1111122 
LUMCON,ioos:station:LUMCON:102:1,2015-12-04T12:30:00Z,29.1870,-90.6093,1.79,22.91,1111122 
LUMCON,ioos:station:LUMCON:102:1,2015-12-04T12:45:00Z,29.1870,-90.6093,1.78,22.84,1111122 
LUMCON,ioos:station:LUMCON:102:1,2015-12-04T13:00:00Z,29.1870,-90.6093,1.79,22.79,1111122 
LUMCON,ioos:station:LUMCON:102:1,2015-12-04T13:15:00Z,29.1870,-90.6093,1.79,22.73,1111122 
LUMCON,ioos:station:LUMCON:102:1,2015-12-04T13:30:00Z,29.1870,-90.6093,1.78,22.66,1111122 